DateTimeUTC,F1_A11,F1_S11,BsB_S11,BsG_S11,BsR_S11,BbsB_S11,BbsG_S11,BbsR_S11,BaB_A11,BaG_A11,BaR_A11,Tu_S11,T_S11,Uu_S11,U_S11,P_S11,T1_A11
2021-01-09T13:00:00Z,00000200,21000000,,,,,,,0000.22,0000.36,-000.06,14.8,22.0,,00.0,0640.5,30.7
2021-01-09T13:01:00Z,00000200,21000000,,,,,,,-000.50,-000.24,-000.17,14.8,22.0,,00.0,0640.5,30.7
2021-01-09T13:02:00Z,00000200,21000000,,,,,,,0000.25,-000.15,0000.11,14.8,22.0,,00.0,0640.5,30.7
2021-01-09T13:03:00Z,00000200,61000000,,,,,,,0000.51,0000.62,0000.37,14.8,22.0,,00.0,0640.5,30.7
2021-01-09T13:04:00Z,00000200,41000000,0000.34,0000.09,0000.04,-000.18,0000.29,-000.21,0001.06,0001.14,0001.05,15.0,21.8,,00.0,0640.9,30.7
2021-01-09T13:05:00Z,00000200,01000000,0000.85,0000.23,-000.02,0000.27,-000.04,0000.29,0000.05,-000.19,-000.01,14.9,21.7,,00.0,0640.9,30.7
2021-01-09T13:06:00Z,00000200,01000000,0001.14,0000.32,0000.17,0000.46,0000.23,0000.09,0000.16,0000.43,0000.21,15.0,21.7,,00.0,0640.8,30.7
2021-01-09T13:07:00Z,00000200,01000000,0000.45,-000.08,-000.10,0000.50,0000.00,-000.17,0000.58,0000.34,0000.61,15.0,21.7,,00.0,0640.8,30.7
2021-01-09T13:08:00Z,00000200,01000000,0000.29,0000.27,-000.26,-000.17,0000.16,-000.22,0000.20,0000.34,0000.15,15.0,21.7,,00.0,0640.8,30.7
2021-01-09T13:09:00Z,00000200,01000000,0000.30,-000.05,0000.08,0000.07,0000.14,-000.06,0000.05,0000.43,0000.35,15.1,21.7,,00.0,0640.8,30.7
2021-01-09T13:10:00Z,00000200,01000000,-000.16,-000.12,-000.05,0000.80,-000.03,-000.10,0000.44,0000.08,-000.22,15.2,21.7,,00.0,0640.8,30.7
2021-01-09T13:11:00Z,00000200,01000000,0000.08,0000.23,0000.03,-000.01,0000.08,0000.08,0000.01,0000.09,-000.14,15.2,21.8,,00.0,0640.8,30.7
2021-01-09T13:12:00Z,00000200,01000000,0000.05,0000.40,0000.12,0000.47,0000.23,0000.14,0000.19,-000.04,0000.56,15.3,21.8,,00.0,0640.8,30.8
2021-01-09T13:13:00Z,00000200,01000000,0000.38,0000.35,0000.05,-000.04,-000.10,-000.24,0000.43,0000.56,-000.05,15.4,21.8,,00.0,0640.9,30.8
2021-01-09T13:14:00Z,00000200,01000000,0000.25,0000.18,-000.01,0000.16,0000.13,0000.01,-000.17,0000.01,-000.10,15.4,21.9,,00.0,0640.8,30.8
2021-01-09T13:15:00Z,00000200,01000000,0000.42,0000.15,0000.08,0000.57,-000.10,0000.16,0000.27,-000.06,0000.18,15.5,21.9,,00.0,0640.9,30.8
2021-01-09T13:16:00Z,00000200,01000000,0000.20,0000.30,0000.24,0000.19,-000.08,0000.11,-000.29,-000.03,-000.16,15.6,22.0,,00.0,0640.9,30.8
2021-01-09T13:17:00Z,00000200,01000000,0000.48,0000.04,0000.06,-000.07,0000.12,0000.01,0000.36,0000.10,0000.36,15.6,22.0,,00.0,0640.9,30.8
2021-01-09T13:18:00Z,00000200,01000000,0000.17,-000.05,0000.15,0000.08,-000.00,-000.07,-000.22,0000.15,-000.16,15.6,22.0,,00.0,0640.8,30.8
2021-01-09T13:19:00Z,00000200,01000000,0000.83,0000.12,-000.13,0000.47,0000.13,0000.17,0000.29,-000.06,0000.12,15.6,22.0,,00.0,0640.8,30.8
2021-01-09T13:20:00Z,00000200,01000000,-000.51,0000.08,0000.04,0000.04,-000.14,0000.02,-000.06,0000.03,-000.05,15.5,22.0,,00.0,0640.8,30.7
2021-01-09T13:21:00Z,00000200,01000000,0000.39,-000.03,0000.00,0000.33,0000.19,0000.16,0000.18,0000.09,0000.23,15.5,22.0,,00.0,0640.8,30.7
2021-01-09T13:22:00Z,00000200,01000000,0000.88,-000.01,-000.12,0000.24,0000.08,-000.02,0000.16,0000.13,-000.00,15.5,22.0,,00.0,0640.8,30.8
2021-01-09T13:23:00Z,00000200,01000000,-000.02,0000.10,0000.18,0000.66,-000.23,0000.02,0000.11,0000.20,-000.18,15.6,22.0,,00.0,0640.9,30.8
2021-01-09T13:24:00Z,00000200,01000000,0000.28,-000.09,-000.07,0000.22,-000.14,0000.02,-000.04,0000.31,0000.38,15.7,22.1,,00.0,0640.9,30.8
2021-01-09T13:25:00Z,00000200,01000000,-000.38,0000.29,0000.14,-000.35,0000.04,0000.10,0000.17,0000.20,0000.13,15.7,22.1,,00.0,0640.8,30.8
2021-01-09T13:26:00Z,00000200,01000000,0000.17,0000.26,-000.14,-000.20,0000.08,-000.00,0000.13,-000.07,-000.22,15.8,22.1,,00.0,0640.8,30.8
2021-01-09T13:27:00Z,00000200,01000000,-000.60,0000.31,-000.15,0000.08,-000.05,-000.24,-000.03,-000.23,0000.38,15.9,22.2,,00.0,0640.8,30.8
2021-01-09T13:28:00Z,00000200,01000000,0000.11,0000.05,0000.09,0000.25,-000.02,-000.07,0000.01,-000.14,-000.38,15.9,22.2,,00.0,0640.8,30.8
2021-01-09T13:29:00Z,00000200,01000000,0000.32,-000.12,-000.06,-000.35,0000.04,0000.09,-000.21,0000.26,-000.11,15.8,22.2,,00.0,0640.8,30.8
2021-01-09T13:30:00Z,00000200,01000000,0000.15,0000.19,-000.18,0000.16,-000.04,0000.12,0000.13,-000.20,-000.02,15.8,22.2,,00.0,0640.8,30.8
2021-01-09T13:31:00Z,00000200,01000000,-000.10,0000.05,0000.32,-000.45,-000.08,-000.06,-000.01,0000.04,-000.24,15.7,22.2,,00.0,0640.8,30.8
2021-01-09T13:32:00Z,00000200,01000000,0000.40,0000.49,-000.05,0000.01,-000.09,0000.22,0000.22,-000.18,0000.16,15.7,22.2,,00.0,0640.8,30.8
2021-01-09T13:33:00Z,00000200,01000000,0000.86,-000.06,0000.20,-000.15,0000.30,-000.06,-000.14,-000.01,0000.08,15.6,22.2,,00.0,0640.8,30.8
2021-01-09T13:34:00Z,00000200,01000000,0000.78,0000.27,-000.05,0000.37,-000.12,0000.02,0000.28,0000.36,0000.02,15.5,22.1,,00.0,0640.8,30.8
2021-01-09T13:35:00Z,00000200,01000000,0000.10,0000.22,0000.18,0000.33,0000.04,0000.15,0000.12,0000.28,0000.49,15.5,22.1,,00.0,0640.8,30.7
2021-01-09T13:36:00Z,00000200,01000000,0000.44,0000.08,0000.15,0000.44,0000.08,0000.01,0000.01,0000.13,0000.13,15.5,22.1,,00.0,0640.8,30.7
2021-01-09T13:37:00Z,00000200,01000000,-000.07,-000.07,0000.10,0000.04,0000.11,0000.10,0000.33,0000.22,0000.04,15.5,22.1,,00.0,0640.8,30.8
2021-01-09T13:38:00Z,00000200,01000000,0000.88,0000.17,0000.20,-000.39,-000.04,0000.22,-000.01,0000.11,-000.04,15.6,22.1,,00.0,0640.8,30.8
2021-01-09T13:39:00Z,00000200,01000000,0000.65,0000.21,-000.02,-000.09,0000.03,0000.02,0000.13,0000.28,0000.13,15.7,22.2,,00.0,0640.9,30.8
2021-01-09T13:40:00Z,00000200,01000000,-000.02,0000.17,-000.06,-000.07,0000.06,0000.18,-000.11,-000.46,-000.03,15.7,22.2,,00.0,0640.9,30.8
2021-01-09T13:41:00Z,00000200,01000000,0000.21,0000.09,0000.10,0000.14,0000.22,-000.10,-000.27,0000.01,0000.02,15.7,22.2,,00.0,0640.9,30.8
2021-01-09T13:42:00Z,00000200,01000000,0000.15,-000.18,0000.03,-000.68,-000.07,0000.19,0000.35,0000.02,0000.07,15.7,22.2,,00.0,0641.0,30.8
2021-01-09T13:43:00Z,00000200,01000000,0000.06,0000.08,0000.02,0000.13,-000.20,0000.32,-000.17,-000.14,-000.41,15.6,22.1,,00.0,0640.9,30.7
2021-01-09T13:44:00Z,00000200,01000000,-000.08,0000.16,0000.11,0000.08,0000.07,0000.03,-000.06,-000.16,0000.55,15.5,22.1,,00.0,0641.0,30.7
2021-01-09T13:45:00Z,00000200,01000000,-000.27,0000.22,0000.11,0000.02,0000.11,0000.07,0000.18,-000.05,-000.35,15.5,22.1,,00.0,0641.0,30.7
2021-01-09T13:46:00Z,00000200,01000000,0000.19,0000.19,-000.03,0000.39,0000.00,0000.19,-000.11,0000.03,-000.02,15.4,22.0,,00.0,0641.0,30.7
2021-01-09T13:47:00Z,00000200,01000000,-000.19,0000.04,-000.23,-000.51,0000.22,-000.25,0000.26,0000.14,-000.08,15.3,22.0,,00.0,0641.0,30.7
2021-01-09T13:48:00Z,00000200,01000000,0000.65,0000.07,-000.01,0000.19,0000.06,0000.11,-000.16,-000.23,0000.16,15.2,22.0,,00.0,0641.0,30.7
2021-01-09T13:49:00Z,00000200,01000000,0000.05,0000.29,0000.04,0000.17,0000.16,-000.05,-000.30,-000.08,0000.04,15.2,21.9,,00.0,0641.0,30.7
2021-01-09T13:50:00Z,00000200,01000000,-000.03,0000.06,-000.12,-000.14,0000.18,-000.21,0000.12,0000.20,-000.15,15.1,21.9,,00.0,0641.0,30.6
2021-01-09T13:51:00Z,00000200,01000000,0000.29,0000.00,0000.07,0000.29,0000.07,0000.01,0000.23,-000.00,0000.14,15.1,21.8,,00.0,0641.0,30.7
2021-01-09T13:52:00Z,00000200,01000000,0000.20,0000.19,-000.17,0000.57,-000.03,0000.07,-000.07,0000.39,0000.14,15.2,21.8,,00.0,0641.0,30.7
2021-01-09T13:53:00Z,00000200,01000000,0000.12,0000.15,0000.20,0000.44,-000.14,0000.15,0000.29,0000.03,0000.08,15.2,21.9,,00.0,0641.1,30.7
2021-01-09T13:54:00Z,00000200,01000000,0000.28,0000.19,0000.28,0000.07,-000.30,0000.13,0000.25,0000.40,0000.10,15.3,21.9,,00.0,0641.1,30.7
2021-01-09T13:55:00Z,00000200,01000000,-000.18,0000.10,0000.11,0000.07,-000.08,0000.27,0000.16,-000.15,0000.06,15.3,21.9,,00.0,0641.1,30.7
2021-01-09T13:56:00Z,00000200,01000000,-000.12,0000.19,-000.10,0000.41,-000.02,-000.10,-000.38,0000.08,0000.14,15.4,22.0,,00.0,0641.0,30.7
2021-01-09T13:57:00Z,00000200,41000000,,,,,,,0000.14,-000.16,-000.19,15.5,22.0,,00.0,0641.0,30.8
2021-01-09T13:58:00Z,00000200,61000000,,,,,,,-000.19,-000.09,0000.16,15.2,22.2,,00.0,0640.1,30.8
2021-01-09T13:59:00Z,00000200,21000000,,,,,,,0000.21,0000.02,-000.18,15.2,22.3,,00.0,0640.1,30.8
